AirNav   Get Bose SoundSport FEEE
 
 381 users online  

L17 Taft-Kern County Airport
Taft, California, USA

GOING TO TAFT?


FAA INFORMATION EFFECTIVE 18 JULY 2019

Location

FAA Identifier: L17
Lat/Long: 35-08-29.9691N / 119-26-16.2251W
35-08.499485N / 119-26.270418W
35.1416581 / -119.4378403
(estimated)
Elevation: 858.2 ft. / 261.6 m (surveyed)
Variation: 14E (1985)
From city: 1 mile E of TAFT, CA
Time zone: UTC -7 (UTC -8 during Standard Time)
Zip code: 93268

Airport Operations

Airport use: Open to the public
Activation date: 04/1940
Control tower: no
ARTCC: LOS ANGELES CENTER
FSS: RANCHO MURIETA FLIGHT SERVICE STATION
NOTAMs facility: RIU (NOTAM-D service available)
Attendance: SAT-SUN 1000-1600, ALL MON-FRI 0800-1600
Pattern altitude: 1658.2 ft. MSL
Wind indicator: lighted
Segmented circle: yes
Lights: MIRL RY 07/25 AND PAPI RY 25 NIGHT USE ONLY ACTVT- CTAF.
Beacon: white-green (lighted land airport)
Operates sunset to sunrise.

Airport Communications

CTAF/UNICOM: 122.8

Nearby radio navigation aids

VOR radial/distance  VOR name  Freq  Var
FLWr066/21.2FELLOWS VOR/DME117.5016E
EHFr205/26.5SHAFTER VORTAC115.4014E
GMNr290/34.8GORMAN VORTAC116.1016E

Airport Services

Parking: tiedowns
Airframe service: MINOR
Powerplant service: MINOR
Bottled oxygen: NONE
Bulk oxygen: NONE

Runway Information

Runway 7/25

Dimensions: 3283 x 60 ft. / 1001 x 18 m
Surface: asphalt, in fair condition
Weight bearing capacity: 
Single wheel: 4.0
Runway edge lights: medium intensity
Runway edge markings: MKD WITH X'S NO LDGS TKOF ONLY.
Gradient: WEST
RUNWAY 7  RUNWAY 25
Latitude: 35-08.450232N35-08.548737N
Longitude: 119-26.594825W119-25.946012W
Elevation: 858.2 ft.759.2 ft.
Traffic pattern: leftleft
Runway heading: 066 magnetic, 080 true246 magnetic, 260 true
Markings: NSTDbasic, in fair condition
Visual slope indicator: 2-light PAPI on left (3.50 degrees glide path)
Runway end identifier lights: nono
Touchdown point: yes, no lightsyes, no lights
Obstructions: 25 ft. pole, 385 ft. from runway, 100 ft. left of centerline, 7:1 slope to clearnone
RY 25 +4 FT BRUSH 150 FT FM EOR 50 FT RIGHT.

Airport Ownership and Management from official FAA records

Ownership: Publicly-owned
Owner: COUNTY OF KERN DEPT OF AIRPORTS
3701 WINGS WAY, SUITE 300
BAKERSFIELD, CA 93308-7026
Phone 661-391-1800
Manager: RON BREWSTER
3701 WINGS WAY, SUITE 300
BAKERSFIELD, CA 93308-7026
Phone (661) 391-1824
CELL PHONE: (661) 747-4053 24 HRS: (661) 393-3868 FAX: (661) 391-1801 EMAIL: BREWSTERR@CO.KERN.CA.US

Airport Operational Statistics

Aircraft based on the field: 15
Single engine airplanes: 13
Multi engine airplanes: 2
    
Aircraft operations: avg 27/day *
75% local general aviation
20% transient general aviation
5% air taxi
* for 12-month period ending 08 March 2019

Additional Remarks

RY 25 STEEP UPHILL GRADE (2.2%).
BE ALERT TO LGTD CRANES WITHIN 5 NMR 200' AGL AND BELOW.
RY 07/25 HAS A DRY STREAMBED NE END.
RY 07 NO TKOF WITH TAILWINDS.
NO STUDENT SOLO FLIGHTS PERMITTED.
FOR ARPT INFORMATION CALL (661) 393-7990.
FOR CD CTC LOS ANGELES ARTCC AT 661-575-2079.

Instrument Procedures

There are no published instrument procedures at L17.

Some nearby airports with instrument procedures:

L45 - Bakersfield Municipal Airport (24 nm NE)
KMIT - Shafter Airport-Minter Field (25 nm NE)
KBFL - Meadows Field Airport (26 nm NE)
KDLO - Delano Municipal Airport (38 nm N)
KIZA - Santa Ynez Airport (45 nm SW)
 
Loc | Ops | Rwys | IFR | FBO | Links
Com | Nav | Svcs | Stats | Notes
Area around L17 (Taft-Kern County Airport)
 
Road maps at: MapQuest Bing Google
 
Aerial photo
WARNING: Photo may not be current or correct
Aerial photo of L17 (Taft-Kern County Airport)
Photo by Mike Evans
Photo taken 12-May-2009

Do you have a better or more recent aerial photo of Taft-Kern County Airport that you would like to share? If so, please send us your photo.

 
Sectional chart

 
Airport distance calculator
Flying to Taft-Kern County Airport? Find the distance to fly.

From to L17

Sunrise and sunset
Times for 24-Jul-2019
 Local
(UTC-7)
 Zulu
(UTC)
Morning civil twilight05:3412:34
Sunrise06:0213:02
Sunset20:0603:06
Evening civil twilight20:3503:35

Current date and time
Zulu (UTC)  24-Jul-2019 08:11:42
Local (UTC-7)  24-Jul-2019 01:11:42
 
METAR
KBFL 
26nm NE 
240754Z AUTO 05003KT 10SM CLR 29/15 A2995 RMK AO2 SLP134 T02940150 403720261
KDLO 
38nm N 
240755Z AUTO 00000KT 10SM CLR 25/18 A2994 RMK AO2 T02500175 403560208
2CN4 
39nm NW 
SuperAWOS
240555Z AUTO 00000KT 10SM 27/09 A2999
KSDB 
43nm SE 
240753Z AUTO 30009KT 10SM CLR 24/09 A3022 RMK AO2 SLP168 T02440089
KIZA 
45nm SW 
240755Z AUTO 00000KT 10SM CLR 15/12 A2999 RMK AO2
KSBA 
47nm SW 
240753Z AUTO 08004KT 9SM CLR 18/16 A2994 RMK AO2 SLP138 T01830156 402780150
KTSP 
49nm E 
240755Z AUTO 00000KT 10SM CLR 20/11 A3020 RMK AO2
TAF
KBFL 
26nm NE 
240529Z 2406/2506 31005KT P6SM FEW120 SCT200
NOTAMs
Click for the latest NOTAMs
NOTAMs are issued by the DoD/FAA and will open in a separate window not controlled by AirNav.

 

 
 

FBO, Fuel Providers, and Aircraft Ground Support

  
 Business Name 
 
 Contact 
 
 Services / Description 
 
Fuel Prices
 
Comments
  
CB & RR, LLC 661-765-5330
[email]
Aviation fuel, Aircraft parking (ramp or tiedown), Restrooms, Showers

More info about CB & RR, LLC
World Fuel Services
100LL Jet A
SS $5.75 $3.85 
 Updated 11-Jul-2019
 
   write
SS=Self service
Update Fuel Prices
 

Would you like to see your business listed on this page?

 If your business provides an interesting product or service to pilots, flight crews, aircraft, or users of the Taft-Kern County Airport, you should consider listing it here.  To start the listing process, click on the button below
 
Add a business
 

Other Pages about Taft-Kern County Airport

Update a link
 
Copyright © AirNav, LLC. All rights reserved. Privacy Policy  Contact